Location: B?lite?ti
(46.2833°N, 22.7333°E)
Time: 16:46:29
(UTC+00:00)

ERS-2 - Pass Details

Date: 24 January 2021
Orbit: 492 x 497 km, 98.6° (Epoch: 28 February)

Event Time Altitude Azimuth Distance (km) Brightness Sun altitude
Exits shadow 17:50:27 15° 342° (NNW) 1,406 4.5 -25.5°
Maximum altitude 17:52:40 26° 293° (WNW) 1,001 4.2 -25.8°
Drops below altitude 10° 17:55:43 10° 236° (SW) 1,685 5.5 -26.4°
Sets 17:58:00 0° 223° (SW) 2,562 6.3 -26.8°
